sat.trackr.live / text

‹ back to catalog

QIANFAN-44

NORAD 62245 · 2024-232J

PAYLOAD ACTIVE UNKNOWN

§ Identity

Operator
Country
PRC
Launch date
2024-12-05
Launch site
TAISC
Launch vehicle
Mass (kg)
RCS (m²)

External: N2YO · Heavens-Above · Gunter

§ Orbital elements

Epoch: 2026-09-22T20:25:29.385120Z

Period
106.59 min
Inclination
89.0167°
Eccentricity
0.0015629
Mean motion
13.51030502 rev/d
Perigee alt
1,056.8 km
Apogee alt
1,080.1 km
Semi-major
7,446.6 km
B*
1.4409e-4
RAAN
12.5708°
Arg perigee
94.5039°
Mean anomaly
265.7898°
Rev number
13,769

§ Raw data

QIANFAN-441 62245U 24232J   26265.85103455  .00000105  00000+0  14409-3 0  99902 62245  89.0167  12.5708 0015629  94.5039 265.7898 13.51030502137699

JSON: /api/v1/satellites/62245 · /tle

For live sub-satellite position, see the globe view (requires WebGL).

§ Visibility from observer

Set your observer location to see the next 7 days of passes ≥ 10°. The values pass through the URL so the page stays shareable.

No JS? Fill the form by hand. The geolocation button needs JavaScript.